Terminal Aerodrome Forecast
Issued by NWS Raleigh/Durham, NC

Home | Current Version | Previous Version | Text Only | Print | Product List | Glossary On
Versions: 1 2 3 4 5 6 7 8 9 10 11 12 13 14 15 16 17 18 19 20 21 22 23 24 25 26 27 28 29 30 31 32 33 34 35 36 37 38 39 40 41 42 43 44 45 46 47 48
000
FTUS42 KRAH 030443 AAB
TAFRDU
TAF AMD
KRDU 030443Z 0305/0324 03005KT P6SM SCT050 BKN250
      TEMPO 0305/0308 BKN015
     FM030800 07006KT P6SM BKN040
      TEMPO 0312/0315 6SM -RA BR BKN025 OVC040
     FM031800 08006KT P6SM BKN025=

USA.gov is the U.S. government's official web portal to all federal, state and local government web resources and services.